When you browse on this site, cookies collect data to enhance your experience and personalize the content and advertising you see.
Visit our Privacy Policy to learn more. By continuing to use the site, you agree to this use of cookies and data.
  • In Latvia
  • List of Countries
  • For 7 days
  • Water Temperature
  • Satellite Maps
  • Weather Map
  • Weather Widgets
  • user-avatar
    Login

    Hourly Weather Rudolowice

    Today, 18 June, Tuesday

    Time Temperature Precipitation Wind Pressure Humidity
    00:00 +18°C° 0 mm 1 mps 744 mmHg 88%
    01:00 +16°C° 0 mm 1 mps 744 mmHg 91%
    02:00 +16°C° 0 mm 1 mps 744 mmHg 93%
    03:00 +16°C° 0 mm 1 mps 744 mmHg 94%
    04:00 +16°C° 0 mm 1 mps 744 mmHg 95%
    05:00 +15°C° 0 mm 1 mps 744 mmHg 95%
    06:00 +17°C° 0 mm 2 mps 744 mmHg 92%
    07:00 +18°C° 0 mm 2 mps 744 mmHg 88%
    08:00 +19°C° 0 mm 3 mps 744 mmHg 84%
    09:00 +20°C° 0 mm 3 mps 744 mmHg 80%
    10:00 +21°C° 0 mm 3 mps 744 mmHg 77%
    11:00 +22°C° 0 mm 3 mps 744 mmHg 73%
    12:00 +24°C° 0 mm 3 mps 744 mmHg 73%
    13:00 +24°C° 0 mm 3 mps 744 mmHg 72%
    14:00 +24°C° 0 mm 3 mps 743 mmHg 72%
    15:00 +25°C° 0 mm 3 mps 743 mmHg 73%
    16:00 +25°C° 0 mm 3 mps 743 mmHg 74%
    17:00 +25°C° 0 mm 4 mps 743 mmHg 75%
    18:00 +24°C° 0 mm 3 mps 742 mmHg 79%
    19:00 +22°C° 0 mm 3 mps 742 mmHg 83%
    20:00 +21°C° 0 mm 3 mps 742 mmHg 87%
    21:00 +20°C° 0 mm 3 mps 742 mmHg 89%
    22:00 +20°C° 0 mm 3 mps 742 mmHg 92%
    23:00 +19°C° 0 mm 3 mps 742 mmHg 94%

    Tomorrow, 19 June, Wednesday

    Time Temperature Precipitation Wind Pressure Humidity
    00:00 +18°C° 0 mm 3 mps 742 mmHg 94%
    01:00 +18°C° 0 mm 3 mps 742 mmHg 95%
    02:00 +18°C° 0 mm 3 mps 742 mmHg 95%
    03:00 +18°C° 0 mm 3 mps 742 mmHg 95%
    04:00 +18°C° 0 mm 3 mps 741 mmHg 96%
    05:00 +18°C° 0 mm 3 mps 741 mmHg 96%
    06:00 +19°C° 0 mm 3 mps 741 mmHg 93%
    07:00 +20°C° 0 mm 3 mps 741 mmHg 90%
    08:00 +21°C° 0 mm 3 mps 741 mmHg 86%
    09:00 +22°C° 0.7 mm 3 mps 741 mmHg 85%
    10:00 +25°C° 0.7 mm 3 mps 741 mmHg 83%
    11:00 +26°C° 0.7 mm 4 mps 741 mmHg 81%
    12:00 +27°C° 0.8 mm 3 mps 740 mmHg 77%
    13:00 +28°C° 0.8 mm 3 mps 740 mmHg 72%
    14:00 +28°C° 0.8 mm 3 mps 740 mmHg 68%
    15:00 +28°C° 0.3 mm 3 mps 740 mmHg 70%
    16:00 +28°C° 0.3 mm 3 mps 739 mmHg 71%
    17:00 +28°C° 0.3 mm 4 mps 739 mmHg 73%
    18:00 +26°C° 0.4 mm 3 mps 739 mmHg 78%
    19:00 +25°C° 0.4 mm 3 mps 739 mmHg 83%
    20:00 +24°C° 0.4 mm 2 mps 739 mmHg 87%
    21:00 +23°C° 0.1 mm 2 mps 739 mmHg 88%
    22:00 +21°C° 0.1 mm 2 mps 739 mmHg 89%
    23:00 +21°C° 0.1 mm 1 mps 739 mmHg 90%

    Day after tomorrow, 20 June, Thursday

    Time Temperature Precipitation Wind Pressure Humidity
    00:00 +21°C° 0 mm 1 mps 739 mmHg 90%
    01:00 +21°C° 0 mm 1 mps 739 mmHg 90%
    02:00 +20°C° 0 mm 1 mps 738 mmHg 91%
    03:00 +20°C° 0 mm 1 mps 739 mmHg 90%
    04:00 +20°C° 0 mm 1 mps 739 mmHg 90%
    05:00 +20°C° 0 mm 1 mps 739 mmHg 90%
    06:00 +21°C° 0 mm 1 mps 739 mmHg 87%
    07:00 +23°C° 0 mm 1 mps 739 mmHg 84%
    08:00 +24°C° 0 mm 1 mps 739 mmHg 80%
    09:00 +25°C° 0 mm 1 mps 739 mmHg 74%
    10:00 +27°C° 0 mm 1 mps 739 mmHg 68%
    11:00 +28°C° 0 mm 1 mps 739 mmHg 62%
    12:00 +29°C° 0 mm 1 mps 739 mmHg 61%
    13:00 +29°C° 0 mm 1 mps 739 mmHg 60%
    14:00 +29°C° 0 mm 2 mps 739 mmHg 59%
    15:00 +29°C° 0.1 mm 2 mps 739 mmHg 59%
    16:00 +29°C° 0.1 mm 2 mps 739 mmHg 60%
    17:00 +29°C° 0.1 mm 1 mps 738 mmHg 61%
    18:00 +28°C° 0.6 mm 1 mps 739 mmHg 67%
    19:00 +26°C° 0.6 mm 1 mps 739 mmHg 73%
    20:00 +25°C° 0.6 mm 1 mps 739 mmHg 80%
    21:00 +24°C° 0 mm 1 mps 739 mmHg 81%
    22:00 +23°C° 0 mm 1 mps 739 mmHg 83%
    23:00 +22°C° 0 mm 1 mps 739 mmHg 85%

    21 June, Friday

    Time Temperature Precipitation Wind Pressure Humidity
    00:00 +21°C° 0 mm 1 mps 739 mmHg 86%
    01:00 +21°C° 0 mm 1 mps 739 mmHg 87%
    02:00 +20°C° 0 mm 1 mps 739 mmHg 87%
    03:00 +20°C° 0 mm 1 mps 739 mmHg 87%
    04:00 +19°C° 0 mm 2 mps 739 mmHg 87%
    05:00 +19°C° 0 mm 2 mps 739 mmHg 87%
    06:00 +21°C° 0 mm 2 mps 739 mmHg 84%
    07:00 +23°C° 0 mm 2 mps 739 mmHg 80%
    08:00 +25°C° 0 mm 2 mps 739 mmHg 76%
    09:00 +27°C° 0 mm 2 mps 739 mmHg 71%
    10:00 +28°C° 0 mm 2 mps 740 mmHg 65%
    11:00 +29°C° 0 mm 2 mps 740 mmHg 60%
    12:00 +30°C° 0.1 mm 2 mps 739 mmHg 58%
    13:00 +30°C° 0.1 mm 2 mps 739 mmHg 57%
    14:00 +31°C° 0.1 mm 2 mps 739 mmHg 55%
    15:00 +31°C° 0.5 mm 2 mps 739 mmHg 59%
    16:00 +30°C° 0.5 mm 2 mps 739 mmHg 62%
    17:00 +30°C° 0.5 mm 1 mps 739 mmHg 66%
    18:00 +28°C° 0.5 mm 2 mps 739 mmHg 71%
    19:00 +26°C° 0.5 mm 2 mps 739 mmHg 77%
    20:00 +25°C° 0.5 mm 2 mps 739 mmHg 83%
    21:00 +24°C° 0 mm 2 mps 739 mmHg 84%
    22:00 +23°C° 0 mm 2 mps 739 mmHg 86%
    23:00 +21°C° 0 mm 2 mps 739 mmHg 87%

    22 June, Saturday

    Time Temperature Precipitation Wind Pressure Humidity
    00:00 +21°C° 0 mm 2 mps 739 mmHg 89%
    01:00 +20°C° 0 mm 2 mps 740 mmHg 91%
    02:00 +20°C° 0 mm 2 mps 740 mmHg 92%
    03:00 +20°C° 0.4 mm 3 mps 740 mmHg 94%
    04:00 +19°C° 0.4 mm 3 mps 740 mmHg 96%
    05:00 +19°C° 0.4 mm 4 mps 740 mmHg 97%
    06:00 +19°C° 0 mm 4 mps 741 mmHg 95%
    07:00 +20°C° 0 mm 4 mps 741 mmHg 94%
    08:00 +20°C° 0 mm 4 mps 741 mmHg 92%
    09:00 +20°C° 0 mm 4 mps 742 mmHg 91%
    10:00 +21°C° 0 mm 4 mps 742 mmHg 90%
    11:00 +21°C° 0 mm 4 mps 742 mmHg 89%
    12:00 +21°C° 0 mm 4 mps 742 mmHg 88%
    13:00 +21°C° 0 mm 4 mps 742 mmHg 86%
    14:00 +22°C° 0 mm 3 mps 742 mmHg 85%
    15:00 +22°C° 0.3 mm 3 mps 742 mmHg 86%
    16:00 +22°C° 0.3 mm 3 mps 742 mmHg 86%
    17:00 +22°C° 0.3 mm 3 mps 742 mmHg 87%
    18:00 +21°C° 0.5 mm 3 mps 742 mmHg 88%
    19:00 +21°C° 0.5 mm 3 mps 742 mmHg 90%
    20:00 +20°C° 0.5 mm 3 mps 742 mmHg 92%
    21:00 +20°C° 0.5 mm 2 mps 742 mmHg 93%
    22:00 +19°C° 0.5 mm 2 mps 742 mmHg 94%
    23:00 +19°C° 0.5 mm 2 mps 742 mmHg 95%

    23 June, Sunday

    Time Temperature Precipitation Wind Pressure Humidity
    00:00 +18°C° 0.7 mm 2 mps 742 mmHg 96%
    01:00 +18°C° 0.7 mm 2 mps 742 mmHg 96%
    02:00 +18°C° 0.7 mm 2 mps 742 mmHg 97%
    03:00 +18°C° 0.2 mm 2 mps 742 mmHg 97%
    04:00 +18°C° 0.2 mm 2 mps 742 mmHg 98%
    05:00 +18°C° 0.2 mm 2 mps 742 mmHg 98%
    06:00 +18°C° 0 mm 2 mps 742 mmHg 97%
    07:00 +19°C° 0 mm 2 mps 742 mmHg 95%
    08:00 +19°C° 0 mm 3 mps 743 mmHg 94%
    09:00 +19°C° 0.1 mm 3 mps 743 mmHg 92%
    10:00 +20°C° 0.1 mm 3 mps 743 mmHg 91%
    11:00 +20°C° 0.1 mm 3 mps 743 mmHg 89%
    12:00 +21°C° 0.2 mm 3 mps 743 mmHg 86%
    13:00 +22°C° 0.2 mm 3 mps 743 mmHg 83%
    14:00 +22°C° 0.2 mm 3 mps 743 mmHg 81%
    15:00 +24°C° 0.1 mm 3 mps 742 mmHg 78%
    16:00 +24°C° 0.1 mm 2 mps 742 mmHg 76%
    17:00 +25°C° 0.1 mm 2 mps 742 mmHg 74%
    18:00 +24°C° 0 mm 2 mps 742 mmHg 78%
    19:00 +23°C° 0 mm 1 mps 743 mmHg 82%
    20:00 +22°C° 0 mm 1 mps 743 mmHg 86%
    21:00 +21°C° 0 mm 1 mps 743 mmHg 88%
    22:00 +20°C° 0 mm 1 mps 743 mmHg 91%
    23:00 +19°C° 0 mm 1 mps 743 mmHg 93%
    Show more